Météo par heure à Jurzynek

Ce jour, 17 Juin, Jeudi

Heure Température Précipitation Vent Pression Humidité
00:00 +14°C° 0 mm 2 m/s 755 mmHg 76%
01:00 +14°C° 0 mm 2 m/s 755 mmHg 77%
02:00 +14°C° 0 mm 2 m/s 755 mmHg 78%
03:00 +13°C° 0 mm 2 m/s 755 mmHg 79%
04:00 +13°C° 0 mm 2 m/s 755 mmHg 79%
05:00 +15°C° 0 mm 2 m/s 755 mmHg 74%
06:00 +17°C° 0 mm 2 m/s 756 mmHg 69%
07:00 +19°C° 0 mm 3 m/s 756 mmHg 65%
08:00 +20°C° 0 mm 3 m/s 756 mmHg 60%
09:00 +22°C° 0 mm 3 m/s 756 mmHg 55%
10:00 +23°C° 0 mm 4 m/s 756 mmHg 50%
11:00 +25°C° 0 mm 3 m/s 756 mmHg 47%
12:00 +26°C° 0 mm 3 m/s 756 mmHg 44%
13:00 +27°C° 0 mm 3 m/s 756 mmHg 41%
14:00 +27°C° 0 mm 3 m/s 756 mmHg 43%
15:00 +27°C° 0 mm 3 m/s 756 mmHg 45%
16:00 +27°C° 0 mm 4 m/s 756 mmHg 47%
17:00 +25°C° 0 mm 3 m/s 756 mmHg 54%
18:00 +24°C° 0 mm 3 m/s 756 mmHg 61%
19:00 +21°C° 0 mm 3 m/s 756 mmHg 69%
20:00 +20°C° 0 mm 3 m/s 756 mmHg 72%
21:00 +19°C° 0 mm 3 m/s 756 mmHg 75%
22:00 +18°C° 0 mm 3 m/s 756 mmHg 78%
23:00 +17°C° 0 mm 3 m/s 756 mmHg 80%

Demain, 18 Juin, Vendredi

Heure Température Précipitation Vent Pression Humidité
00:00 +17°C° 0 mm 3 m/s 756 mmHg 83%
01:00 +16°C° 0 mm 3 m/s 756 mmHg 85%
02:00 +16°C° 0 mm 3 m/s 756 mmHg 85%
03:00 +16°C° 0 mm 3 m/s 756 mmHg 85%
04:00 +16°C° 0 mm 3 m/s 756 mmHg 85%
05:00 +18°C° 0 mm 3 m/s 756 mmHg 81%
06:00 +20°C° 0 mm 3 m/s 756 mmHg 77%
07:00 +22°C° 0 mm 3 m/s 756 mmHg 72%
08:00 +23°C° 0 mm 4 m/s 756 mmHg 67%
09:00 +26°C° 0 mm 5 m/s 756 mmHg 62%
10:00 +27°C° 0 mm 5 m/s 755 mmHg 57%
11:00 +28°C° 0 mm 5 m/s 755 mmHg 55%
12:00 +29°C° 0 mm 5 m/s 755 mmHg 52%
13:00 +29°C° 0 mm 5 m/s 755 mmHg 50%
14:00 +29°C° 0 mm 5 m/s 755 mmHg 51%
15:00 +29°C° 0 mm 5 m/s 754 mmHg 53%
16:00 +29°C° 0 mm 4 m/s 754 mmHg 54%
17:00 +28°C° 0 mm 4 m/s 754 mmHg 60%
18:00 +26°C° 0 mm 4 m/s 754 mmHg 66%
19:00 +25°C° 0 mm 3 m/s 754 mmHg 72%
20:00 +22°C° 0 mm 3 m/s 754 mmHg 75%
21:00 +21°C° 0 mm 3 m/s 755 mmHg 77%
22:00 +20°C° 0 mm 3 m/s 755 mmHg 80%
23:00 +19°C° 0 mm 3 m/s 755 mmHg 84%

Après-demain, 19 Juin, Samedi

Heure Température Précipitation Vent Pression Humidité
00:00 +19°C° 0 mm 3 m/s 754 mmHg 87%
01:00 +18°C° 0 mm 3 m/s 754 mmHg 91%
02:00 +18°C° 0 mm 3 m/s 754 mmHg 91%
03:00 +18°C° 0 mm 3 m/s 754 mmHg 90%
04:00 +18°C° 0 mm 3 m/s 754 mmHg 90%
05:00 +19°C° 0 mm 3 m/s 754 mmHg 85%
06:00 +21°C° 0 mm 4 m/s 754 mmHg 80%
07:00 +23°C° 0 mm 4 m/s 754 mmHg 75%
08:00 +25°C° 0 mm 4 m/s 754 mmHg 70%
09:00 +27°C° 0 mm 5 m/s 754 mmHg 65%
10:00 +28°C° 0 mm 5 m/s 754 mmHg 60%
11:00 +29°C° 0 mm 5 m/s 754 mmHg 57%
12:00 +30°C° 0 mm 5 m/s 754 mmHg 54%
13:00 +30°C° 0 mm 5 m/s 753 mmHg 51%
14:00 +30°C° 0 mm 4 m/s 753 mmHg 51%
15:00 +30°C° 0 mm 4 m/s 753 mmHg 52%
16:00 +30°C° 0 mm 4 m/s 753 mmHg 53%
17:00 +29°C° 0 mm 4 m/s 753 mmHg 59%
18:00 +28°C° 0 mm 3 m/s 753 mmHg 65%
19:00 +26°C° 0 mm 3 m/s 752 mmHg 72%
20:00 +25°C° 0 mm 3 m/s 753 mmHg 75%
21:00 +24°C° 0 mm 3 m/s 753 mmHg 79%
22:00 +22°C° 0 mm 3 m/s 753 mmHg 82%
23:00 +21°C° 0 mm 3 m/s 753 mmHg 85%

20 Juin, Dimanche

Heure Température Précipitation Vent Pression Humidité
00:00 +20°C° 0 mm 3 m/s 753 mmHg 88%
01:00 +20°C° 0 mm 2 m/s 753 mmHg 90%
02:00 +20°C° 0 mm 2 m/s 753 mmHg 91%
03:00 +19°C° 0 mm 2 m/s 753 mmHg 92%
04:00 +19°C° 0 mm 2 m/s 753 mmHg 93%
05:00 +20°C° 0 mm 3 m/s 753 mmHg 86%
06:00 +22°C° 0 mm 4 m/s 753 mmHg 79%
07:00 +23°C° 0 mm 4 m/s 753 mmHg 72%
08:00 +25°C° 0 mm 4 m/s 752 mmHg 68%
09:00 +27°C° 0 mm 5 m/s 752 mmHg 63%
10:00 +28°C° 0 mm 5 m/s 752 mmHg 59%
11:00 +28°C° 0 mm 5 m/s 752 mmHg 58%
12:00 +29°C° 0 mm 5 m/s 751 mmHg 57%
13:00 +29°C° 0 mm 5 m/s 751 mmHg 55%
14:00 +29°C° 0 mm 5 m/s 751 mmHg 56%
15:00 +29°C° 0 mm 5 m/s 751 mmHg 57%
16:00 +28°C° 0 mm 5 m/s 750 mmHg 58%
17:00 +27°C° 0 mm 4 m/s 750 mmHg 63%
18:00 +26°C° 0 mm 4 m/s 750 mmHg 67%
19:00 +26°C° 0 mm 4 m/s 750 mmHg 71%
20:00 +23°C° 0 mm 4 m/s 750 mmHg 75%
21:00 +22°C° 0 mm 4 m/s 750 mmHg 79%
22:00 +21°C° 0 mm 4 m/s 750 mmHg 83%
23:00 +21°C° 0 mm 4 m/s 750 mmHg 87%

21 Juin, Lundi

Heure Température Précipitation Vent Pression Humidité
00:00 +20°C° 0 mm 3 m/s 749 mmHg 90%
01:00 +20°C° 0 mm 3 m/s 749 mmHg 93%
02:00 +19°C° 0 mm 3 m/s 749 mmHg 94%
03:00 +19°C° 0 mm 3 m/s 749 mmHg 95%
04:00 +19°C° 0 mm 3 m/s 749 mmHg 95%
05:00 +21°C° 0 mm 4 m/s 749 mmHg 88%
06:00 +22°C° 0 mm 5 m/s 749 mmHg 81%
07:00 +25°C° 0 mm 5 m/s 749 mmHg 74%
08:00 +26°C° 0 mm 6 m/s 749 mmHg 67%
09:00 +27°C° 0 mm 6 m/s 749 mmHg 60%
10:00 +28°C° 0 mm 6 m/s 749 mmHg 54%
11:00 +29°C° 0 mm 6 m/s 748 mmHg 53%
12:00 +30°C° 0 mm 6 m/s 748 mmHg 51%
13:00 +30°C° 0 mm 5 m/s 748 mmHg 50%
14:00 +30°C° 0 mm 5 m/s 748 mmHg 51%
15:00 +30°C° 0 mm 5 m/s 748 mmHg 52%
16:00 +30°C° 0 mm 5 m/s 747 mmHg 54%
17:00 +29°C° 0 mm 4 m/s 747 mmHg 59%
18:00 +27°C° 0 mm 4 m/s 747 mmHg 64%
19:00 +26°C° 0 mm 3 m/s 747 mmHg 69%
20:00 +25°C° 0 mm 3 m/s 747 mmHg 73%
21:00 +24°C° 0 mm 3 m/s 747 mmHg 77%
22:00 +22°C° 0 mm 3 m/s 747 mmHg 80%
23:00 +21°C° 0 mm 3 m/s 747 mmHg 83%

22 Juin, Mardi

Heure Température Précipitation Vent Pression Humidité
00:00 +20°C° 0 mm 3 m/s 747 mmHg 86%
01:00 +20°C° 0 mm 3 m/s 746 mmHg 89%
02:00 +20°C° 0 mm 3 m/s 746 mmHg 90%
03:00 +19°C° 0 mm 3 m/s 746 mmHg 91%
04:00 +19°C° 0 mm 3 m/s 746 mmHg 92%
05:00 +21°C° 0 mm 3 m/s 746 mmHg 86%
06:00 +23°C° 0 mm 4 m/s 746 mmHg 80%
07:00 +25°C° 0 mm 4 m/s 746 mmHg 73%
08:00 +27°C° 0 mm 4 m/s 746 mmHg 68%
09:00 +28°C° 0 mm 4 m/s 746 mmHg 63%
10:00 +30°C° 0 mm 4 m/s 746 mmHg 58%
11:00 +32°C° 0.1 mm 4 m/s 746 mmHg 54%
12:00 +32°C° 0.1 mm 4 m/s 746 mmHg 51%
13:00 +33°C° 0.1 mm 4 m/s 746 mmHg 48%
14:00 +32°C° 0.4 mm 4 m/s 746 mmHg 54%
15:00 +30°C° 0.4 mm 4 m/s 746 mmHg 61%
16:00 +28°C° 0.4 mm 4 m/s 746 mmHg 67%
17:00 +26°C° 4.4 mm 3 m/s 746 mmHg 76%
18:00 +24°C° 4.4 mm 2 m/s 747 mmHg 85%
19:00 +23°C° 4.4 mm 2 m/s 748 mmHg 94%
20:00 +22°C° 0.4 mm 1 m/s 748 mmHg 93%
21:00 +22°C° 0.4 mm 1 m/s 748 mmHg 93%
22:00 +22°C° 0.4 mm 1 m/s 749 mmHg 92%
23:00 +20°C° 0.2 mm 2 m/s 749 mmHg 94%
Voir plus

Nous avons besoin de votre consentement

Meteoprog et ses fournisseurs de services peuvent stocker et accéder à des données personnelles telles que des cookies, des identifiants d'appareils ou d'autres technologies similaires sur votre appareil et traiter ces données pour personnaliser le contenu et les publicités, ainsi que pour fournir des fonctionnalités de médias sociaux et analyser le trafic.

  • Stocker et/ou accéder à des informations sur votre appareil

    Des cookies, des identifiants d'appareils ou d'autres informations peuvent être stockés ou accessibles sur votre appareil aux fins indiquées ci-dessus.

  • Annonces et contenus personnalisés, mesure des annonces et des contenus, connaissance de l'audience et développement de produits

    Les annonces et le contenu peuvent être personnalisés en fonction d'un profil. D'autres données peuvent être ajoutées pour mieux personnaliser les annonces et le contenu. Les performances des publicités et du contenu peuvent être mesurées. Il est possible d'obtenir des informations sur le public qui a vu les publicités et le contenu. Ces données peuvent être utilisées pour développer ou améliorer l'expérience de l'utilisateur, les systèmes et les logiciels.

En cliquant sur "J'accepte", vous autorisez l'utilisation de cookies, des identifiants d'appareils, des balises web ou d'autres technologies similaires. Vos paramètres peuvent être modifiés dans le navigateur de votre appareil.

Dans certains cas, des intérêts légitimes peuvent être invoqués plutôt qu'un consentement. Vous pouvez en savoir plus à ce sujet dans notre Politique de confidentialité et de cookies.